Location: Eurasberg
(48.3353°N, 11.0839°E)
Time: 14:47:12
(UTC+00:00)

NOSS 8 (E) - Pass Details

Date: 18 January 2026
Orbit: 364 x 1529 km, 63.3° (Epoch: 18 February)

Event Time Altitude Azimuth Distance (km) Brightness Sun altitude
Exits shadow 05:05:06 71° 257° (WSW) 427 4.0 -18.6°
Maximum altitude 05:05:14 73° 231° (SW) 425 4.0 -18.6°
Drops below altitude 10° 05:08:38 10° 146° (SE) 1,600 7.8 -18.0°
Sets 05:10:59 0° 145° (SE) 2,615 9.0 -17.6°
